Погода в Ахунбабаеве

Узбекистан     41°04′25″N   71°57′01″E
темп.,
°C
ветер,
м/с
пор.,
м/с
влажн.,
%
обл.,
%
осадки,
мм/ч
давл.,
гПа
погр.,
м
3 марта, ср
ср323:00+11св2343100 0.0 102596
02:00+9св1254100 0.0 102471
05:00+8вюв1264100 0.0 102436
08:00+8ююв1478100 0.3 1024362
11:00+7юв1287100 3.7 1023296
14:00+7в4683100 1.2 1021386
17:00+7всв4680100 1.6 1022264
20:00+7св3581100 0.2 1024223
4 марта, чт
чт423:00+7ссв3483100 0.3 1024147
02:00+7с3482100 0.0 102483
05:00+6ссв338092 0.0 102461
08:00+7ссв237221 0.0 1024115
11:00+12ссв234545 0.0 1021794
14:00+15св233671 0.0 10181234
17:00+14ссв224086 0.0 1019830
20:00+12ю3451100 0.0 102299
5 марта, пт
пт523:00+11всв2363100 0.1 1022161
02:00+9вюв2377100 0.8 1023214
05:00+9юв4778100 0.9 1024568
08:00+9ююз6872100 0.1 1027524
11:00+10юз345297 0.1 1027966
14:00+13юв243543 0.0 10251646
17:00+13в444027 0.0 10251224
20:00+10ссв35570 0.0 1027116
6 марта, сб
сб623:00+8с47560 0.0 1027184
02:00+6св35510 0.0 102491
05:00+6ссв345050 0.0 102280
08:00+6св3548100 0.0 1019167
11:00+12всв453098 0.0 1012511
14:00+16ссв1324100 0.0 1009784
17:00+15св1229100 0.0 1011443
20:00+12ссз2339100 0.0 101365
7 марта, вс
вс723:00+11сз0144100 0.0 101538
02:00+9в3655100 0.1 1015199
05:00+8зсз1158100 0.1 101522
08:00+8зюз3464100 0.0 1017203
11:00+11ю2257100 0.0 1016725
14:00+13ю2246100 0.0 10161314
17:00+14ююз2243100 0.0 10161544
20:00+11юз235650 0.0 101894